Theta_e
336 337 338 338 336 335 335 335 335 335 335 334 333 332 331 330 330 329 329 330 330 330 331 330 330 330 331 331 331 331 331 330 328 328 329 329 328 327 327 327 329 329 330 329 328 326 319 313 310 307 304 303 302 302 303 303 302 301 301 301 300 300 300
336 336 337 337 337 336 336 336 335 335 334 334 333 332 332 331 330 330 330 330 331 331 331 330 330 331 331 331 331 331 329 327 327 327 329 329 327 324 322 323 326 329 330 330 329 328 323 316 312 308 305 303 303 303 303 303 302 301 301 301 301 300 300
337 337 337 337 337 336 337 336 335 334 334 333 333 332 331 331 330 330 330 331 331 331 331 330 331 331 331 331 330 330 328 326 325 326 326 327 326 325 322 321 323 326 328 329 328 327 323 317 313 309 305 303 303 303 303 303 302 301 301 301 301 300 300
337 338 338 337 336 336 337 336 335 334 333 333 333 332 331 331 331 330 330 331 331 331 331 330 330 330 330 329 328 328 326 324 323 324 324 323 324 324 320 316 316 318 320 322 323 325 323 319 313 308 304 304 303 303 302 302 302 301 301 301 301 300 299
337 337 337 336 336 335 336 335 335 334 334 333 333 332 331 331 330 330 330 331 331 331 330 330 330 329 329 329 327 326 324 322 321 320 319 318 319 319 315 311 310 311 312 315 319 322 323 319 312 307 305 304 303 302 302 302 301 302 302 301 301 301 300
337 337 337 336 335 335 335 335 334 334 333 333 332 332 331 330 330 330 331 331 331 330 330 329 328 328 329 328 327 325 322 319 317 316 314 314 315 314 310 307 306 306 307 311 316 319 318 315 310 307 305 304 303 302 301 302 302 302 302 301 301 301 300
338 337 337 335 334 334 335 334 334 333 333 332 332 332 331 330 330 330 331 332 331 330 329 328 328 328 328 327 325 322 319 316 314 313 312 311 311 309 306 304 303 303 304 307 312 315 314 311 309 307 306 304 303 302 302 302 302 302 302 301 301 300 299
337 337 336 334 334 334 334 334 333 333 333 332 332 332 331 331 330 330 331 332 330 329 328 329 329 328 327 326 322 318 315 314 312 311 309 308 306 304 303 303 302 302 302 303 307 310 311 310 309 307 306 304 303 302 302 302 302 301 301 301 301 300 299
337 336 335 334 334 334 334 334 333 333 333 333 333 332 332 331 330 331 332 331 329 328 328 328 327 326 325 322 317 315 314 312 310 307 305 304 303 302 302 302 302 302 302 302 303 305 306 307 307 307 306 305 303 303 302 301 301 300 300 301 301 300 299
336 336 335 335 334 335 335 335 334 334 334 333 333 333 332 331 331 331 331 330 329 329 328 326 325 324 322 318 313 313 312 308 305 303 302 302 302 302 302 301 301 301 301 301 301 301 302 304 306 307 307 306 305 304 303 302 301 300 300 301 301 301 300
336 336 335 335 335 335 336 335 334 334 333 333 333 332 331 331 331 331 330 330 329 328 326 324 323 321 318 314 312 311 308 305 303 302 302 302 302 302 302 301 301 301 301 301 300 301 300 302 305 306 307 306 306 305 304 303 302 301 300 300 300 300 299
336 336 336 336 336 336 336 335 334 334 333 333 333 332 331 331 331 331 330 330 329 327 325 324 322 320 317 314 312 310 306 304 302 302 302 302 301 302 301 301 301 301 301 301 300 300 300 300 303 305 306 306 306 305 304 305 304 301 300 301 300 300 299
336 337 336 336 337 336 336 335 335 334 333 333 332 331 330 331 331 331 331 329 327 325 325 323 322 320 317 314 312 309 305 303 302 301 301 301 301 301 301 301 301 300 300 300 300 300 300 300 301 304 306 306 306 306 306 306 305 302 300 300 300 299 298
337 337 337 337 337 336 336 335 335 335 334 333 332 331 331 331 331 331 330 328 326 325 324 323 321 319 316 314 311 308 304 302 301 301 301 301 301 301 301 301 300 300 300 300 300 300 300 299 300 302 304 305 306 305 303 304 304 301 300 300 299 299 298
337 337 337 337 337 336 336 336 335 335 334 333 332 331 331 331 331 331 329 327 326 325 323 322 320 317 315 313 310 307 303 301 301 301 301 301 301 301 301 300 300 300 300 300 300 300 299 299 299 299 301 302 302 301 299 300 301 300 299 299 299 298 298
336 337 338 337 336 336 335 335 335 334 334 333 332 331 330 331 330 330 328 326 326 325 323 322 318 315 313 311 308 304 302 301 300 301 301 301 301 300 300 300 300 300 300 300 300 299 299 299 299 298 299 299 299 299 299 299 299 299 299 299 299 298 297
336 337 337 336 336 335 335 335 334 334 333 332 331 330 330 330 330 329 327 326 325 324 323 320 317 314 312 308 305 302 301 300 300 300 300 300 300 300 300 300 300 300 299 299 299 299 299 298 298 298 298 299 299 299 299 299 298 298 298 298 298 297 296
336 336 336 335 335 335 335 334 333 334 333 332 331 330 330 330 329 328 326 325 324 323 322 320 316 313 310 305 302 300 300 300 300 300 300 300 300 300 300 300 299 299 299 299 299 299 299 299 298 298 298 298 299 299 298 298 298 298 298 297 297 296 296
336 336 336 335 335 335 334 333 333 333 333 331 330 330 329 329 328 327 326 325 323 322 321 318 315 311 307 303 301 300 299 299 299 299 299 299 299 299 299 299 299 299 299 299 299 299 299 299 298 298 298 298 299 299 298 298 298 298 297 297 297 296 296
336 337 336 336 335 334 333 333 332 332 331 330 329 329 328 328 328 327 326 324 323 321 319 317 313 308 304 301 300 299 299 299 299 299 299 299 299 299 299 299 299 299 298 298 299 299 299 298 297 298 298 298 298 298 298 298 298 297 297 297 296 296 295
337 337 336 336 335 333 333 332 331 331 330 329 328 328 328 328 327 326 325 324 322 320 318 315 311 307 303 300 299 299 299 299 299 299 299 299 299 299 298 298 298 298 298 298 298 299 298 298 297 298 298 298 298 298 298 298 298 297 297 296 296 296 296
338 337 336 335 335 333 333 332 331 330 329 328 328 328 328 328 327 326 325 324 321 319 317 314 310 306 302 300 299 299 299 299 299 299 299 299 299 299 298 298 298 298 298 298 298 298 298 297 297 298 298 298 298 298 298 298 297 297 297 296 296 296 296
339 337 336 335 335 334 333 332 330 329 328 328 328 328 328 328 327 326 325 324 321 318 316 312 308 304 302 300 299 299 299 299 298 298 298 298 299 298 298 298 298 298 298 298 297 297 297 297 297 297 298 298 298 298 298 298 297 297 296 296 296 296 297
338 337 335 335 335 335 334 332 330 329 328 329 329 328 328 327 327 326 325 323 321 318 316 311 307 304 301 300 299 299 299 298 298 298 298 298 299 298 298 298 297 297 298 297 297 297 297 297 297 297 298 298 297 297 298 297 297 297 297 296 296 296 297
338 337 336 335 334 335 335 332 330 329 329 329 328 328 327 327 326 326 324 322 320 318 314 310 306 303 301 300 299 299 299 299 298 299 298 298 298 298 298 298 297 297 298 297 297 297 297 297 297 297 297 297 297 297 297 297 297 297 297 296 296 296 298
337 336 336 336 335 335 334 331 328 328 329 329 328 328 327 327 326 325 324 322 320 317 313 309 305 303 301 300 300 299 299 299 299 299 299 298 298 298 298 298 297 297 297 297 297 296 296 297 297 297 297 297 297 297 297 297 297 297 297 296 296 297 298
336 335 336 336 335 335 333 330 328 328 329 328 328 327 327 326 325 325 323 322 319 316 313 309 306 303 302 301 300 300 300 300 300 300 299 299 299 299 298 298 298 297 297 297 297 296 296 296 296 297 297 297 297 297 297 297 297 297 297 296 296 297 298
336 336 335 335 334 333 332 330 328 328 328 328 327 327 326 325 325 324 323 322 319 317 314 311 307 305 303 302 301 301 301 301 301 301 301 300 300 300 300 299 298 298 297 296 297 296 296 296 296 296 296 297 297 296 297 297 297 296 296 296 296 297 298
337 337 336 335 333 332 331 330 328 328 327 327 327 326 324 324 324 324 323 321 320 318 316 313 310 306 304 303 302 302 302 302 302 302 302 302 301 301 300 299 299 298 297 296 296 296 296 296 296 296 296 296 297 297 296 297 297 296 296 296 296 297 298
337 336 335 335 333 331 331 330 328 327 327 327 326 325 324 324 324 324 323 322 321 320 319 317 313 309 306 304 303 303 303 302 302 303 303 302 300 299 299 299 299 299 297 295 295 295 295 295 295 296 296 296 296 296 296 297 297 296 296 296 296 297 298
337 336 335 335 333 331 330 329 327 327 327 326 326 325 324 324 324 324 323 322 321 320 319 318 316 312 308 305 304 303 303 303 303 304 304 302 299 298 299 298 298 299 297 295 295 295 295 295 295 296 296 296 296 296 296 297 297 297 296 296 296 296 298
337 336 335 334 333 331 330 328 327 327 327 326 326 325 324 324 323 323 323 322 321 319 318 317 315 313 310 307 305 304 304 304 304 304 303 301 299 298 298 298 298 298 297 296 295 295 295 295 295 296 296 296 296 296 296 297 297 297 297 296 296 296 298
335 335 334 333 332 331 329 328 327 327 327 326 326 325 325 323 323 323 323 322 320 319 318 316 314 313 311 307 306 305 304 304 304 303 302 300 300 299 298 298 298 299 299 297 295 295 295 295 295 295 296 296 296 296 296 296 297 297 297 296 296 296 298
333 333 333 332 330 328 327 327 327 327 327 326 326 325 325 324 324 323 323 322 320 319 318 316 313 311 310 308 307 306 305 305 304 303 303 302 301 299 298 298 299 300 300 299 297 296 296 296 296 295 296 296 296 296 296 296 297 297 296 296 296 297 298
333 332 332 331 328 327 327 327 327 327 327 326 326 325 325 325 325 324 323 322 321 319 318 316 312 310 309 309 308 307 306 305 305 304 304 304 303 301 299 298 299 300 300 300 299 299 298 298 297 296 295 296 296 296 296 296 296 297 296 296 296 297 297
333 331 331 330 328 327 326 326 327 327 327 326 326 325 325 325 325 324 323 322 320 319 318 316 314 311 309 308 308 307 307 306 306 305 305 304 304 302 300 299 299 301 301 301 301 300 298 297 297 296 296 296 296 296 296 296 296 296 296 296 296 297 298
332 331 330 330 329 327 326 326 326 326 326 326 326 325 325 325 325 324 323 322 320 318 317 316 315 313 310 308 308 308 308 308 307 307 306 305 304 303 300 299 300 301 302 301 301 300 298 296 296 296 296 295 295 295 295 296 296 296 296 296 297 297 298
Wind_Speed
34 32 30 28 27 25 25 25 24 24 22 21 19 19 18 17 16 16 15 14 14 13 13 13 14 15 15 15 15 16 17 18 18 18 19 20 20 20 20 20 20 17 14 11 10 9 10 14 14 12 10 10 10 10 9 6 5 4 5 6 9 11 12
33 31 29 29 27 26 25 25 24 23 22 22 21 20 19 17 16 16 15 14 14 13 13 14 14 14 15 15 15 16 17 17 17 18 19 19 18 16 16 17 18 18 17 15 12 10 11 13 15 14 13 12 11 10 7 5 4 2 3 5 7 10 11
33 32 31 29 28 27 26 25 24 24 23 22 22 21 19 17 17 16 15 14 14 14 13 14 14 14 14 14 14 15 16 16 16 16 16 16 15 14 13 15 17 17 17 16 15 14 13 11 12 14 15 13 12 10 7 6 5 2 1 4 6 8 10
34 34 32 31 29 28 27 26 25 24 23 22 22 21 19 18 17 16 15 15 15 14 14 14 14 14 13 13 13 14 15 15 15 14 14 14 14 13 13 13 15 16 15 15 15 15 15 13 12 15 17 14 12 10 9 9 6 3 0 3 6 8 9
36 35 33 31 30 29 28 27 26 25 23 23 22 21 21 20 18 16 15 16 15 14 14 14 13 13 13 13 14 14 14 14 14 13 13 13 13 12 11 12 12 13 13 13 12 13 14 13 12 16 20 16 14 13 12 10 7 3 0 3 6 8 9
37 36 33 31 30 29 29 28 27 26 24 23 22 22 22 21 19 17 16 16 15 13 14 14 13 14 14 13 14 14 14 13 12 12 12 12 11 11 10 10 10 11 11 10 11 11 12 12 13 16 20 17 14 15 14 10 7 4 0 3 6 8 10
37 36 33 32 30 30 29 28 27 26 25 23 21 21 22 21 19 18 17 17 15 14 14 15 15 14 13 13 13 14 13 12 11 11 11 11 10 9 9 9 9 9 9 9 10 11 12 14 15 16 19 19 15 14 13 10 7 5 2 2 5 7 9
36 35 33 31 30 30 29 28 27 26 24 21 20 21 22 21 20 19 18 17 15 15 15 15 15 13 12 13 13 13 12 11 11 11 10 9 9 9 9 9 9 9 9 9 9 10 12 13 14 16 17 17 17 16 13 10 8 6 4 4 6 8 10
35 34 32 31 30 30 29 28 26 25 22 20 19 21 21 20 20 20 19 16 15 15 15 15 14 11 12 13 13 12 12 11 11 9 8 8 8 8 9 9 8 8 8 8 8 9 11 12 13 14 15 14 14 16 16 12 9 7 6 5 7 8 9
35 33 32 31 30 29 29 28 26 24 22 20 19 20 20 20 20 20 18 16 15 15 14 14 12 11 12 12 12 11 11 11 9 8 8 8 9 9 9 8 8 7 7 8 8 8 9 11 12 13 13 12 11 12 15 15 11 8 7 7 7 8 9
35 32 30 30 30 29 29 28 26 23 21 21 20 19 20 20 20 19 18 16 15 15 14 13 11 11 11 12 12 11 10 9 8 8 8 9 10 10 9 8 8 8 7 8 8 8 9 11 12 13 13 13 11 10 11 13 12 9 8 8 8 8 9
35 32 30 30 30 29 29 28 26 22 20 20 20 20 20 20 20 19 18 16 15 16 15 14 12 11 12 12 11 10 9 8 7 8 10 11 10 9 9 9 8 8 8 8 8 8 9 11 13 15 15 15 15 13 10 10 10 9 8 8 8 8 8
34 32 31 30 30 30 28 27 25 22 20 20 20 20 20 20 19 19 17 16 16 16 15 14 13 12 12 12 10 9 9 8 9 10 11 11 11 10 9 9 9 9 8 8 8 8 9 11 13 16 17 17 16 15 13 11 10 10 9 9 9 9 8
35 33 31 31 31 30 29 27 24 22 21 20 20 21 21 19 19 18 17 16 16 15 15 14 14 13 13 12 10 10 10 10 11 12 12 12 11 11 11 10 9 9 9 9 8 8 8 9 10 13 16 16 16 14 12 11 11 10 10 10 9 8 6
35 33 32 31 31 31 29 27 24 22 21 20 20 21 20 19 18 17 17 16 16 16 16 14 14 14 13 12 11 12 12 12 13 13 13 12 12 12 11 10 10 10 9 9 8 8 7 7 8 10 12 13 12 10 8 7 8 9 9 9 8 6 5
35 34 32 32 32 31 29 27 24 21 20 20 21 21 20 18 18 17 17 16 16 15 15 14 14 13 13 12 13 13 13 13 13 13 13 13 12 11 10 10 10 10 9 8 8 7 7 8 8 9 10 10 8 6 5 4 5 6 7 7 6 5 4
35 34 33 33 32 30 29 26 23 20 19 20 22 21 19 19 18 17 17 17 15 14 14 14 14 13 13 13 13 13 13 13 14 14 13 12 11 10 10 10 11 10 10 9 8 8 8 8 9 9 9 8 7 5 4 3 3 3 4 4 3 3 4
35 33 33 33 31 29 27 25 23 21 20 21 23 21 20 20 19 18 18 17 14 13 13 13 14 14 14 15 14 14 14 14 15 14 13 11 10 10 10 10 11 11 11 9 9 8 7 8 10 11 9 9 8 7 6 5 4 3 3 3 2 3 4
34 33 33 32 31 29 27 25 24 22 21 22 23 22 21 20 19 19 19 16 13 12 12 13 14 15 15 16 15 15 15 15 15 14 13 12 11 11 11 12 12 12 11 10 9 8 8 8 11 11 10 10 9 7 6 5 4 3 3 2 2 2 3
34 33 32 32 30 28 27 26 25 22 20 23 23 22 22 20 19 19 17 15 13 13 13 13 15 16 16 17 16 16 16 16 16 15 14 13 13 13 13 13 13 13 11 10 10 9 9 10 12 12 10 10 8 7 6 5 4 4 3 2 2 1 3
33 32 32 31 30 28 27 27 24 20 20 23 24 22 22 20 19 18 16 14 14 14 14 14 16 17 17 17 17 16 16 16 16 16 15 15 15 15 15 15 14 13 11 11 10 9 10 11 13 13 12 10 8 6 6 5 4 4 3 2 1 1 3
34 32 31 32 30 27 27 27 23 20 21 23 24 23 22 21 19 17 15 14 15 15 15 15 16 17 17 17 17 17 17 17 17 17 17 16 16 16 16 16 15 14 12 11 11 11 12 12 12 12 11 10 8 7 6 5 5 4 3 2 1 2 3
35 32 31 31 29 26 27 27 24 20 22 24 24 24 23 21 20 17 15 16 16 16 15 15 15 16 16 16 16 17 17 17 17 18 18 18 17 17 17 16 15 14 13 13 13 13 13 14 13 12 11 9 8 7 6 6 5 4 4 2 1 2 2
37 35 32 30 28 27 29 28 24 21 23 25 26 25 23 22 20 18 17 17 17 15 14 14 15 16 16 16 16 17 17 18 18 18 18 18 18 17 17 16 16 15 14 14 14 14 14 14 14 13 12 10 8 6 6 6 6 5 4 2 1 2 2
37 35 32 30 29 30 31 28 23 22 26 28 28 26 24 22 20 19 18 18 16 14 13 14 15 16 16 16 16 17 18 18 18 18 18 18 18 17 17 16 16 15 15 14 14 15 15 15 14 13 12 10 8 7 6 6 6 5 4 3 2 2 1
34 34 33 30 30 32 31 27 23 24 28 29 28 26 24 22 20 19 18 17 15 13 12 13 15 16 16 16 16 17 18 19 18 18 18 18 18 17 16 15 15 15 15 15 15 15 15 16 15 14 13 11 9 7 7 6 6 5 4 3 3 1 1
34 35 34 32 32 32 29 26 24 25 29 30 29 27 24 22 20 18 17 15 13 11 11 12 14 14 15 15 16 17 18 18 18 18 18 18 18 16 15 14 15 15 16 16 15 15 16 16 15 14 13 11 10 8 7 6 6 6 4 3 3 1 1
36 39 37 33 31 30 28 26 25 27 31 31 29 26 24 22 20 17 15 13 12 10 9 10 12 13 14 15 16 18 19 19 19 19 18 18 17 15 14 13 13 13 15 16 15 15 15 15 14 14 13 12 11 9 7 7 7 6 5 4 3 2 2
40 43 39 33 29 28 29 28 26 28 32 30 28 26 24 22 19 16 14 13 11 8 7 8 11 12 14 15 16 18 18 19 20 20 19 19 17 16 15 14 13 13 15 16 16 15 15 15 15 15 14 13 12 10 8 7 7 7 5 4 3 3 3
41 42 37 31 28 28 29 28 27 30 32 30 29 27 24 21 19 15 13 13 11 8 6 8 10 12 14 15 16 17 18 20 20 20 20 19 18 18 18 17 16 16 17 17 16 16 16 16 16 16 15 15 13 11 8 8 8 7 6 5 4 4 5
40 41 37 31 28 28 28 27 28 32 33 30 29 26 22 20 18 16 14 14 13 9 7 8 10 12 14 15 16 17 18 19 20 20 21 20 20 20 19 17 16 17 17 17 17 17 18 18 18 18 17 16 15 12 10 9 9 8 7 6 5 5 5
39 40 36 29 27 27 27 27 29 33 33 29 28 26 22 20 18 16 15 15 14 12 9 10 11 12 14 16 17 17 18 19 20 21 21 21 21 21 20 18 18 17 17 17 18 19 19 19 19 19 18 17 16 13 12 11 10 9 8 7 6 6 7
40 38 31 26 24 25 25 27 30 34 33 30 28 27 24 20 17 17 17 17 16 14 12 12 13 13 14 16 18 18 18 20 21 21 20 20 21 22 20 19 19 17 17 18 18 19 19 20 19 19 19 18 16 14 13 12 11 10 8 8 7 7 9
37 32 26 24 23 21 22 26 31 34 32 30 29 28 25 20 17 19 20 19 18 16 14 14 15 15 16 17 19 19 19 19 20 20 19 20 20 21 21 21 20 19 18 18 17 18 19 19 19 20 19 18 15 14 14 13 11 10 9 9 8 9 10
30 28 25 22 20 19 21 26 31 33 32 31 30 30 27 21 20 22 22 21 19 17 14 14 16 18 18 18 18 19 19 18 18 18 19 21 21 20 21 21 20 19 18 17 16 17 18 18 19 19 18 17 15 15 15 13 12 11 11 10 10 10 11
32 30 26 21 20 19 20 24 30 34 33 32 32 32 29 24 22 24 24 22 20 18 16 16 17 18 19 18 18 19 19 18 18 18 19 20 20 20 20 21 20 20 19 17 16 15 16 18 19 17 16 16 16 15 15 14 13 13 12 11 11 10 11
31 29 25 22 21 21 20 23 30 34 34 34 34 33 29 25 24 25 24 23 21 19 19 19 19 19 20 20 19 19 19 19 19 19 19 19 19 19 20 21 20 19 18 18 17 16 16 18 19 17 16 16 16 16 16 16 15 14 13 13 12 11 10
Wind_Direction
211 213 214 215 216 220 222 223 224 227 230 230 230 231 233 234 233 234 234 234 235 235 235 238 238 237 235 236 237 241 244 247 249 248 244 242 240 241 240 238 239 241 244 246 240 229 209 188 173 162 150 132 119 117 119 114 102 71 39 23 13 6 358
215 216 216 217 218 221 223 224 225 227 229 230 230 231 232 234 234 234 233 234 236 236 236 239 242 243 242 242 243 244 246 248 249 246 243 245 247 249 249 245 244 241 240 243 240 235 224 202 182 171 159 141 131 132 138 139 131 100 28 14 7 357 350
215 217 217 219 220 221 222 224 225 226 228 229 230 231 232 235 235 235 234 235 239 241 242 244 246 248 247 246 247 247 248 247 246 245 243 244 246 251 254 252 249 244 240 239 234 226 218 210 194 175 159 147 149 151 151 157 162 156 34 359 357 349 340
216 216 217 218 220 221 221 223 224 225 227 229 230 232 234 235 235 236 236 237 241 243 244 247 250 251 249 251 251 248 247 245 243 244 245 246 248 251 254 254 253 250 248 248 247 239 223 213 198 171 154 152 158 154 149 157 168 173 204 339 342 339 330
219 219 218 219 220 221 222 223 224 225 227 228 229 232 235 236 235 236 237 239 242 243 246 251 254 253 251 256 258 252 245 243 243 245 249 251 252 254 255 255 253 251 253 252 250 245 232 223 207 173 157 159 161 150 151 162 166 166 269 327 329 328 324
222 223 222 222 223 224 225 226 227 227 228 229 230 232 234 236 239 239 239 241 243 245 250 255 257 254 255 261 264 256 245 243 247 249 251 253 253 255 257 255 252 249 247 240 233 230 220 211 203 179 164 167 168 157 159 169 171 166 198 323 317 317 316
223 224 225 225 226 227 229 231 233 232 232 233 233 233 234 237 240 241 241 242 244 247 251 256 257 255 257 261 258 251 245 243 247 248 248 251 254 256 254 247 245 245 243 235 225 219 209 203 204 194 176 169 170 167 169 176 182 185 205 294 303 305 307
223 225 226 227 228 230 233 235 236 236 236 237 235 234 236 237 239 241 241 243 245 248 252 256 258 256 255 253 247 242 241 241 242 243 246 250 254 253 247 238 234 237 239 235 227 217 211 210 212 211 199 181 171 171 178 186 193 203 215 249 279 291 300
223 225 225 226 228 231 235 238 239 238 238 238 235 234 236 237 239 240 241 242 245 249 252 255 256 250 244 243 239 237 238 238 237 237 242 245 244 238 230 227 225 227 229 227 224 216 209 208 209 215 223 217 193 179 181 187 192 201 211 233 262 281 296
222 223 224 226 228 231 234 238 239 238 238 236 233 234 236 236 237 237 238 240 243 247 249 250 250 242 235 235 235 235 235 234 231 230 233 231 227 222 218 218 216 216 218 212 211 213 209 208 208 214 224 233 229 206 192 190 191 197 207 225 252 277 293
222 223 224 226 229 231 232 234 236 236 235 233 231 233 235 233 232 233 235 237 239 242 243 243 245 241 233 230 231 233 231 227 225 227 224 218 216 215 213 215 214 210 211 209 206 208 211 211 212 217 219 220 229 234 219 203 195 197 209 223 244 268 285
222 223 225 227 230 233 233 234 234 233 230 230 229 231 230 227 227 229 233 234 234 236 238 237 240 240 233 231 234 235 233 226 224 224 219 213 212 214 214 216 216 213 212 212 209 206 209 211 212 215 216 216 219 227 233 223 205 198 211 229 247 266 282
221 223 225 228 231 233 234 235 234 231 228 227 226 227 225 222 225 228 231 232 230 231 235 235 238 238 233 233 236 238 237 231 224 221 218 214 213 215 218 217 215 215 215 215 213 210 209 209 209 212 215 218 221 225 233 236 224 210 214 234 251 266 283
221 223 226 229 232 233 233 233 231 230 228 226 225 224 221 218 222 228 231 229 227 229 233 235 237 236 232 232 235 234 234 230 223 219 217 217 217 217 217 217 216 216 217 218 217 216 212 206 205 211 215 218 222 227 232 233 227 218 219 235 250 264 282
221 223 226 229 231 232 232 229 227 229 229 229 227 221 217 216 219 226 231 231 230 231 232 233 234 234 232 232 234 232 230 225 222 219 218 219 220 218 216 217 220 221 220 222 223 220 215 209 205 206 210 212 214 218 217 217 224 226 228 239 253 266 278
221 222 225 228 230 231 230 228 227 228 231 231 225 216 213 215 219 224 229 233 235 234 233 232 231 232 233 233 233 231 227 224 221 222 222 221 221 220 218 219 223 227 228 227 226 220 211 206 204 201 200 199 199 199 195 204 226 235 239 246 256 265 275
220 222 225 226 228 229 228 227 227 229 233 231 220 210 208 212 218 224 228 232 235 233 233 233 231 231 231 231 231 229 227 224 220 222 224 223 224 224 223 225 227 229 229 227 225 219 213 208 202 197 192 185 179 177 176 188 208 222 231 237 246 266 293
220 222 224 224 226 227 225 226 228 231 232 224 211 206 207 210 215 221 227 232 234 232 233 235 233 232 229 227 226 226 227 224 220 220 221 223 227 228 228 229 230 230 228 227 226 224 225 217 200 192 187 177 172 172 173 177 184 183 189 201 231 280 308
221 223 224 224 225 224 223 225 230 233 227 214 206 205 208 212 216 221 227 232 231 230 232 233 232 231 229 227 224 221 222 222 221 220 219 222 226 227 229 229 230 232 230 228 232 234 232 214 195 188 186 180 178 180 181 180 177 175 180 197 227 280 307
223 222 223 225 225 222 222 226 232 234 223 209 204 205 207 213 219 224 228 230 228 228 229 229 229 228 227 226 224 221 219 219 221 220 220 221 223 225 228 229 231 233 232 231 232 232 223 203 190 188 187 187 188 186 183 181 175 178 188 201 225 278 315
223 222 224 226 224 221 222 227 233 233 219 207 204 206 209 214 220 224 228 227 226 227 226 225 226 224 224 224 224 223 221 220 221 220 220 221 222 225 226 228 230 229 228 228 224 217 212 201 194 193 191 190 192 190 185 183 177 180 189 198 231 322 343
221 221 224 224 221 223 225 228 233 229 215 206 205 207 211 216 222 226 228 225 224 224 224 224 223 223 224 224 224 224 223 223 223 222 222 222 223 225 225 226 227 223 220 221 212 207 207 201 197 201 199 195 195 194 190 185 183 186 192 202 322 359 6
219 220 224 224 225 228 225 228 234 225 211 207 207 208 211 215 221 226 229 228 226 224 223 223 221 222 225 227 227 227 225 224 225 224 225 227 228 227 225 224 223 218 218 217 208 206 208 201 197 202 205 203 201 202 198 192 192 194 196 205 358 8 17
219 218 221 224 229 229 222 227 234 222 209 209 209 209 211 216 221 226 230 230 228 226 224 222 220 220 223 226 228 230 229 228 227 227 227 231 233 231 227 223 219 218 221 218 210 209 209 204 201 203 206 207 206 208 209 204 204 206 208 225 340 11 26
218 218 217 221 227 224 219 227 233 218 209 209 208 209 213 217 222 227 229 228 226 226 224 222 221 221 222 225 227 230 232 232 232 231 231 232 233 233 231 224 220 221 222 218 213 213 211 207 207 208 209 212 212 213 215 216 218 221 227 260 327 8 54
217 220 219 220 223 218 217 229 231 216 208 208 209 211 215 218 222 226 229 228 225 222 222 222 222 223 224 227 228 230 233 235 236 235 235 234 233 234 234 228 224 225 222 216 215 216 214 212 212 213 214 217 218 218 220 223 227 231 240 275 320 346 97
218 220 219 219 217 215 220 233 231 215 208 207 209 212 215 218 222 225 228 228 225 222 223 224 225 226 227 229 231 233 235 237 237 237 237 237 238 239 237 234 233 231 225 220 218 218 218 217 217 219 221 222 222 225 228 231 235 239 248 275 310 318 226
219 217 214 213 215 218 227 234 229 214 207 207 209 213 216 219 223 227 229 227 225 224 225 229 231 232 232 232 233 235 237 237 236 236 238 239 242 243 240 237 237 234 229 228 226 221 220 221 222 223 226 227 228 232 235 234 236 243 255 279 301 291 247
219 215 208 206 213 222 227 231 227 214 206 207 211 214 218 221 225 231 232 228 225 225 234 242 239 237 236 234 233 235 236 236 235 235 237 238 238 239 237 234 235 236 232 231 229 226 223 223 224 227 230 231 233 237 236 233 236 244 258 274 290 280 260
217 212 205 206 216 222 225 230 227 213 206 207 210 214 219 221 227 234 234 233 231 226 241 259 253 244 239 235 235 235 234 234 235 236 237 238 237 237 237 237 238 238 232 227 226 226 225 225 226 228 230 233 237 239 235 232 237 246 258 271 281 273 256
215 211 205 210 220 222 226 234 226 211 207 209 211 217 222 223 229 235 237 239 238 229 242 266 262 252 244 238 237 238 237 237 237 237 238 239 239 238 238 238 239 236 229 226 225 227 228 230 230 231 232 234 238 237 232 234 240 247 255 265 275 267 251
218 212 205 209 219 223 230 237 225 210 208 211 216 220 221 223 231 237 239 242 239 232 239 252 255 255 249 242 239 239 239 239 238 238 240 242 243 243 239 236 235 233 228 226 227 228 231 233 234 234 235 235 237 235 231 235 243 249 257 267 273 264 247
215 209 205 211 220 226 235 234 219 209 208 212 218 220 218 224 237 238 238 241 238 236 241 244 247 252 251 245 242 240 240 241 242 246 248 248 247 247 243 236 233 230 229 229 231 232 234 236 236 236 236 237 238 236 234 238 244 250 260 268 269 258 242
210 206 208 218 224 230 236 228 215 210 210 213 219 218 217 228 244 242 238 240 238 239 246 247 246 247 248 248 246 244 245 248 252 256 258 255 254 252 246 239 234 231 232 233 233 234 236 237 237 236 236 238 238 235 236 241 246 250 255 259 260 251 239
217 213 212 220 226 228 230 223 216 214 214 216 220 219 218 229 243 242 239 239 239 240 246 248 245 245 247 251 251 249 250 255 260 261 259 259 260 258 250 241 237 237 240 240 238 238 239 237 237 236 236 236 235 234 236 242 246 250 253 255 256 249 238
220 211 208 220 229 227 225 221 217 215 216 218 221 220 220 228 238 240 239 239 239 239 242 248 250 247 245 248 251 252 253 257 261 262 260 261 264 264 256 245 240 241 246 248 251 250 244 236 234 234 234 234 235 234 236 240 244 248 252 254 253 248 237
208 203 210 225 230 225 222 219 216 216 217 220 221 221 221 229 238 241 240 241 242 240 240 246 252 250 243 242 246 250 252 255 257 259 261 264 268 266 258 248 243 245 249 253 257 253 242 233 230 231 232 234 236 235 236 239 243 246 249 250 250 246 234